Regional Weather Roundup
Issued by NWS

Home | Current Version | Previous Version | Graphics & Text | Print | Product List | Glossary On
Versions: 1 2 3 4 5 6 7 8 9 10 11 12 13 14 15 16 17 18 19 20 21 22 23 24 25 26 27 28 29 30 31 32 33 34 35 36 37 38 39 40 41 42 43 44 45 46 47 48 49 50
000
ASUS43 KFSD 251902
RWRSD

WEATHER ROUNDUP FOR SOUTH DAKOTA
NATIONAL WEATHER SERVICE SIOUX FALLS SD
200 PM CDT FRI MAY 25 2018

NOTE: "FAIR" INDICATES FEW OR NO CLOUDS BELOW 12,000 FEET WITH NO
SIGNIFICANT WEATHER AND/OR OBSTRUCTIONS TO VISIBILITY.


SDZ001>005-009-010-012>017-252000-
NORTHWEST AND NORTH CENTRAL SOUTH DAKOTA

CITY           SKY/WX    TMP DP  RH WIND       PRES   REMARKS
BUFFALO          N/A     82  50  32 W21G28    29.83F
FAITH            N/A     82  54  37 NW15      29.86F
MOBRIDGE       SUNNY     89  58  34 W12       29.77S
$$

SDZ012>016-024>037-041>051-057-063-072>074-252000-
SOUTHWEST AND SOUTH CENTRAL SOUTH DAKOTA

CITY           SKY/WX    TMP DP  RH WIND       PRES   REMARKS
RAPID CTY ARPT SUNNY     81  57  43 VRB6      29.93R
PIERRE         SUNNY     85  62  46 NW13      29.81S
CUSTER         PTSUNNY   74  44  34 W8        30.06S
ELLSWORTH AFB  SUNNY     81  54  39 N8        29.93R
PHILIP         SUNNY     85  58  39 N8        29.86S
PINE RIDGE     SUNNY     83  57  41 VRB5      29.94F
SPEARFISH      FAIR      77  54  44 NW9G18    29.97F
WINNER         FAIR      88  54  31 VRB5      29.84S
$$

SDZ004>011-016>023-039-040-252000-
NORTHEAST SOUTH DAKOTA

CITY           SKY/WX    TMP DP  RH WIND       PRES   REMARKS
ABERDEEN       MOSUNNY   92  53  26 NW13G28   29.74F
WATERTOWN      SUNNY     85  61  44 W12       29.77F
BROOKINGS      SUNNY     88  54  31 W15       29.78F
SISSETON         N/A     81  60  48 W9G28     29.72S
$$

SDZ017-020-022-023-036>040-048>070-252000-
SOUTHEAST SOUTH DAKOTA

CITY           SKY/WX    TMP DP  RH WIND       PRES   REMARKS
SIOUX FALLS    PTSUNNY   88  61  40 CALM      29.79F
HURON          SUNNY     91  58  32 W9G21     29.76F
CHAMBERLAIN    SUNNY     90  60  36 NW5       29.81F
MITCHELL       SUNNY     86  61  42 W6        29.78F
YANKTON        SUNNY     88  58  36 SW6       29.80F
$$

ABBREVIATIONS USED IN REMARKS
   TC - TEMPERATURE IN CELSIUS
  WCI - WIND CHILL INDEX
   HX - HEAT INDEX
  VSB - VISIBILITY





USA.gov is the U.S. government's official web portal to all federal, state and local government web resources and services.